Location: St. Louis
(38.6270°N, 90.1994°W)
Time: 06:07:25
(UTC-05:00)

deb Delta - Pass Details

Date: 12 July 2022
Orbit: 1084 x 1202 km, 99.8° (Epoch: 16 August)

Event Time Altitude Azimuth Distance (km) Brightness Sun altitude
Exits shadow 23:55:21 - 90° (E) 3,427 ? -27.2°
Reaches altitude 10° 23:57:00 10° 79° (E) 3,123 ? -27.3°
Maximum altitude 23:59:59 13° 54° (NE) 2,879 ? -27.4°
Drops below altitude 10° 00:02:58 10° 29° (NNE) 3,104 ? -27.6°
Sets 00:07:13 0° 4° (N) 4,047 ? -27.8°
